Location: Brno
(49.2000°N, 16.6333°E)
Time: 14:40:55
(UTC+01:00)

ISS - Pass Details

Date: 23 January 2019
Orbit: 403 x 411 km, 51.6° (Epoch: 23 February)

Event Time Altitude Azimuth Distance (km) Brightness Sun altitude
Rises 18:31:24 0° 215° (SW) 2,324 0.7 -18.7°
Reaches altitude 10° 18:33:40 10° 202° (SSW) 1,469 -0.6 -19.1°
Enters shadow 18:35:43 23° 167° (SSE) 910 -2.1 -19.4°
